METEOR 2-11 DEB, 60006

Orbit data source: Space-Track

METEOR 2-11 DEB, 60006 is space debris in LEO originally from a launch on Thu, 05 Jul 1984 UTC launched from the Plesetsk Missile And Space Complex (PKMTR). Debris objects in space refer to the collection of defunct objects orbiting the Earth. Examples of debris include non-operational satellites, rocket bodies, and fragments generated from explosions, collisions, or faulty payload assembly.

Loading next visibility...
METEOR 2-11 DEB details
Identifier
60006, 1984-072AB
Orbit
LEO
Last TLE update19 hours ago
Origin
Flag of CISVVKO (CIS)
ManufacturerUnknown
MissionSpacecraft
Bus & MotorUnknown
MassUnknown
Launch date (UTC)
1984-07-05 (40 years ago)
Launch vehicleUnknown
Launch site
Plesetsk Missile And Space Complex (PKMTR)
Object type
Payload
Rocket body
Debris
Shape & HBRUnknown
Radar Cross SectionSmall (<0.1 m²)

Expand to show TLE details & history

TLE from 19 hours ago
0 METEOR 2-11 DEB
1 60006U 84072AB  24360.95425071  .00005362  00000-0  39095-2 0  9995
2 60006  82.5132  86.7591 0016028   9.2837 350.8622 13.95870638355512
Epoch: 2024-12-25T22:54Z
Definitive object data (Epoch: 2024-12-25T22:54:07.261Z)
Latitude-0.00009°
Longitude8.28824°
Altitude899.515 km
Speed7.408 km/s
True Right ascension05h 47m 02s
True Declination0° 00' 00"
Sunlit
Object was in full shadow at TLE epoch
Visualization TLE readout
Latitude-3.78577°
Longitude7.15177°
Altitude900.111 km
Speed7.408 km/s
Apparent Right ascension05h 29m 44s
Apparent Declination-20° 33' 01"
Sunlit
Object is in full shadow
Visualization observer readout
Local Sidereal Time17:10:50
Azimuth346.827° N
Elevation-70.217°
Doppler factor1
Orbital elements
Apogee altitude916.94 km
Perigee altitude893.593 km
Semi-major axis7,283.404 km
Eccentricity0.0016028
Inclination82.5132°
RAAN86.7591°
Arg. of periapsis9.2837°
True anomaly350.83297°
Mean anomaly350.8622°
Eccentric anomaly350.84759°
Mean motion3.49174 °/min
BSTAR0.0039095
Orbital period103.1 mins
Loading maneuver chart data...
Loading historical data...
Loading historical data...
Loading historical data...
Loading historical data...
Loading historical data...
Loading historical data...
Loading historical data...

METEOR 2-11 DEB Visibility forecast

Observer location: undefined°, undefined

Span
Click to sort rows by Start time (UTC) header in descending order
Start Az.
Max El. time (UTC)
Max El. Az.
Max El.
End time (UTC)
End Az.
10 mins2024-12-26 18:24:27.160Z339.115° N2024-12-26 18:29:27.160Z274.292° WNW36.371°2024-12-26 18:34:27.160Z199.341° SSW
9 mins2024-12-27 05:59:27.160Z151.325° SSE2024-12-27 06:03:27.160Z89.74° E33.11°2024-12-27 06:08:27.160Z23.988° NE
7 mins2024-12-27 07:44:27.160Z244.85° WSW2024-12-27 07:47:27.160Z286.15° WNW23.856°2024-12-27 07:51:27.160Z337.314° NNW
8 mins2024-12-27 16:47:27.160Z27.15° NE2024-12-27 16:50:27.160Z69.099° E26.042°2024-12-27 16:55:27.160Z131.083° SE
|